Time,TemperatureF,DewpointF,PressureIn,WindDirection,WindDirectionDegrees,WindSpeedMPH,WindSpeedGustMPH,Humidity,HourlyPrecipIn,Conditions,Clouds,dailyrainin,SolarRadiationWatts/m^2,SoftwareType,DateUTC
2013-03-11 00:03:00,66.0,59.0,-100.00,East,81,5.0,8.0,79,0.00,,,0.00,0.000000,,2013-03-11 04:03:00,
2013-03-11 00:12:00,66.0,59.0,-100.00,East,81,5.0,8.0,79,0.00,,,0.00,0.000000,,2013-03-11 04:12:00,
2013-03-11 00:33:00,65.0,57.0,-100.00,ESE,105,6.0,11.0,75,0.00,,,0.00,0.000000,,2013-03-11 04:33:00,
2013-03-11 00:43:00,65.0,57.0,-100.00,ESE,105,6.0,11.0,75,0.00,,,0.00,0.000000,,2013-03-11 04:43:00,
2013-03-11 00:53:00,65.0,57.0,-100.00,ESE,105,6.0,11.0,75,0.00,,,0.00,0.000000,,2013-03-11 04:53:00,
2013-03-11 01:03:00,65.0,57.0,-100.00,ESE,105,6.0,11.0,75,0.00,,,0.00,0.000000,,2013-03-11 05:03:00,
2013-03-11 01:12:00,65.0,57.0,-100.00,ESE,105,6.0,11.0,75,0.00,,,0.00,0.000000,,2013-03-11 05:12:00,
2013-03-11 01:32:00,64.0,58.0,-100.00,ESE,106,5.0,10.0,80,0.00,,,0.00,0.000000,,2013-03-11 05:32:00,
2013-03-11 01:43:00,64.0,58.0,-100.00,ESE,106,5.0,10.0,80,0.00,,,0.00,0.000000,,2013-03-11 05:43:00,
2013-03-11 01:52:00,64.0,58.0,-100.00,ESE,106,5.0,10.0,80,0.00,,,0.00,0.000000,,2013-03-11 05:52:00,
2013-03-11 02:02:00,64.0,58.0,-100.00,ESE,106,5.0,10.0,80,0.00,,,0.00,0.000000,,2013-03-11 06:02:00,
2013-03-11 02:12:00,64.0,58.0,-100.00,ESE,106,5.0,10.0,80,0.00,,,0.00,0.000000,,2013-03-11 06:12:00,
2013-03-11 02:33:00,63.0,58.0,-100.00,ESE,106,4.0,9.0,83,0.00,,,0.00,0.000000,,2013-03-11 06:33:00,
2013-03-11 02:42:00,63.0,58.0,-100.00,ESE,106,4.0,9.0,83,0.00,,,0.00,0.000000,,2013-03-11 06:42:00,
2013-03-11 02:53:00,63.0,58.0,-100.00,ESE,106,4.0,9.0,83,0.00,,,0.00,0.000000,,2013-03-11 06:53:00,
2013-03-11 03:03:00,63.0,58.0,-100.00,ESE,106,4.0,9.0,83,0.00,,,0.00,0.000000,,2013-03-11 07:03:00,
2013-03-11 03:12:00,63.0,58.0,-100.00,ESE,106,4.0,9.0,83,0.00,,,0.00,0.000000,,2013-03-11 07:12:00,
2013-03-11 03:33:00,63.0,58.0,-100.00,ESE,103,4.0,9.0,83,0.00,,,0.00,0.000000,,2013-03-11 07:33:00,
2013-03-11 03:42:00,63.0,58.0,-100.00,ESE,103,4.0,9.0,83,0.00,,,0.00,0.000000,,2013-03-11 07:42:00,
2013-03-11 03:52:00,63.0,58.0,-100.00,ESE,103,4.0,9.0,83,0.00,,,0.00,0.000000,,2013-03-11 07:52:00,
2013-03-11 04:02:00,63.0,58.0,-100.00,ESE,103,4.0,9.0,83,0.00,,,0.00,0.000000,,2013-03-11 08:02:00,
2013-03-11 04:12:00,63.0,58.0,-100.00,ESE,103,4.0,9.0,83,0.00,,,0.00,0.000000,,2013-03-11 08:12:00,
2013-03-11 04:42:00,62.0,58.0,-100.00,East,97,3.0,7.0,86,0.00,,,0.00,0.000000,,2013-03-11 08:42:00,
2013-03-11 04:52:00,62.0,58.0,-100.00,East,97,3.0,7.0,86,0.00,,,0.00,0.000000,,2013-03-11 08:52:00,
2013-03-11 05:02:00,62.0,58.0,-100.00,East,97,3.0,7.0,86,0.00,,,0.00,0.000000,,2013-03-11 09:02:00,
2013-03-11 05:12:00,62.0,58.0,-100.00,East,97,3.0,7.0,86,0.00,,,0.00,0.000000,,2013-03-11 09:12:00,
2013-03-11 05:32:00,62.0,58.0,-100.00,East,99,4.0,7.0,87,0.00,,,0.00,0.000000,,2013-03-11 09:32:00,
2013-03-11 05:42:00,62.0,58.0,-100.00,East,99,4.0,7.0,87,0.00,,,0.00,0.000000,,2013-03-11 09:42:00,
2013-03-11 05:53:00,62.0,58.0,-100.00,East,99,4.0,7.0,87,0.00,,,0.00,0.000000,,2013-03-11 09:53:00,
2013-03-11 06:02:00,62.0,58.0,-100.00,East,99,4.0,7.0,87,0.00,,,0.00,0.000000,,2013-03-11 10:02:00,
2013-03-11 06:12:00,62.0,58.0,-100.00,East,99,4.0,7.0,87,0.00,,,0.00,0.000000,,2013-03-11 10:12:00,
2013-03-11 06:33:00,62.0,58.0,-100.00,East,95,5.0,9.0,87,0.00,,,0.00,0.000000,,2013-03-11 10:33:00,
2013-03-11 06:42:00,62.0,58.0,-100.00,East,95,5.0,9.0,87,0.00,,,0.00,0.000000,,2013-03-11 10:42:00,
2013-03-11 06:53:00,62.0,58.0,-100.00,East,95,5.0,9.0,87,0.00,,,0.00,0.000000,,2013-03-11 10:53:00,
2013-03-11 07:02:00,62.0,58.0,-100.00,East,95,5.0,9.0,87,0.00,,,0.00,0.000000,,2013-03-11 11:02:00,
2013-03-11 07:12:00,62.0,58.0,-100.00,East,95,5.0,9.0,87,0.00,,,0.00,0.000000,,2013-03-11 11:12:00,
2013-03-11 07:33:00,60.0,57.0,-100.00,East,96,3.0,7.0,90,0.00,,,-99.99,0.000000,,2013-03-11 11:33:00,
2013-03-11 07:43:00,60.0,57.0,-100.00,East,96,3.0,7.0,90,0.00,,,-99.99,0.000000,,2013-03-11 11:43:00,
2013-03-11 07:53:00,60.0,57.0,-100.00,East,96,3.0,7.0,90,0.00,,,-99.99,0.000000,,2013-03-11 11:53:00,
2013-03-11 08:02:00,60.0,57.0,-100.00,East,96,3.0,7.0,90,0.00,,,-99.99,0.000000,,2013-03-11 12:02:00,
2013-03-11 08:12:00,60.0,57.0,-100.00,East,96,3.0,7.0,90,0.00,,,-99.99,0.000000,,2013-03-11 12:12:00,
2013-03-11 08:43:00,62.0,59.0,-100.00,East,96,3.0,5.0,91,0.00,,,-99.99,20.000000,,2013-03-11 12:43:00,
2013-03-11 08:53:00,62.0,59.0,-100.00,East,96,3.0,5.0,91,0.00,,,-99.99,20.000000,,2013-03-11 12:53:00,
2013-03-11 09:03:00,62.0,59.0,-100.00,East,96,3.0,5.0,91,0.00,,,-99.99,20.000000,,2013-03-11 13:03:00,
2013-03-11 09:12:00,62.0,59.0,-100.00,East,96,3.0,5.0,91,0.00,,,-99.99,20.000000,,2013-03-11 13:12:00,
2013-03-11 09:33:00,68.0,61.0,-100.00,ESE,119,6.0,10.0,78,0.00,,,0.00,138.000000,,2013-03-11 13:33:00,
2013-03-11 09:43:00,68.0,61.0,-100.00,ESE,119,6.0,10.0,78,0.00,,,0.00,138.000000,,2013-03-11 13:43:00,
2013-03-11 09:53:00,68.0,61.0,-100.00,ESE,119,6.0,10.0,78,0.00,,,0.00,138.000000,,2013-03-11 13:53:00,
2013-03-11 10:02:00,68.0,61.0,-100.00,ESE,119,6.0,10.0,78,0.00,,,0.00,138.000000,,2013-03-11 14:02:00,
2013-03-11 10:12:00,68.0,61.0,-100.00,ESE,119,6.0,10.0,78,0.00,,,0.00,138.000000,,2013-03-11 14:12:00,
2013-03-11 10:43:00,70.0,61.0,-100.00,SE,137,7.0,14.0,72,0.00,,,0.00,294.000000,,2013-03-11 14:43:00,
2013-03-11 10:53:00,70.0,61.0,-100.00,SE,137,7.0,14.0,72,0.00,,,0.00,294.000000,,2013-03-11 14:53:00,
2013-03-11 11:03:00,70.0,61.0,-100.00,SE,137,7.0,14.0,72,0.00,,,0.00,294.000000,,2013-03-11 15:03:00,
2013-03-11 11:13:00,70.0,61.0,-100.00,SE,137,7.0,14.0,72,0.00,,,0.00,294.000000,,2013-03-11 15:13:00,
2013-03-11 11:43:00,74.0,60.0,-100.00,SE,129,8.0,15.0,62,0.00,,,0.00,465.000000,,2013-03-11 15:43:00,
2013-03-11 11:53:00,74.0,60.0,-100.00,SE,129,8.0,15.0,62,0.00,,,0.00,465.000000,,2013-03-11 15:53:00,
2013-03-11 12:03:00,74.0,60.0,-100.00,SE,129,8.0,15.0,62,0.00,,,0.00,465.000000,,2013-03-11 16:03:00,
2013-03-11 12:13:00,74.0,60.0,-100.00,SE,129,8.0,15.0,62,0.00,,,0.00,465.000000,,2013-03-11 16:13:00,
2013-03-11 12:17:00,78.0,61.0,-100.00,SSE,166,8.0,18.0,56,0.00,,,0.00,622.000000,,2013-03-11 16:17:00,
2013-03-11 12:32:00,78.0,61.0,-100.00,SSE,166,8.0,18.0,56,0.00,,,0.00,622.000000,,2013-03-11 16:32:00,
2013-03-11 12:43:00,78.0,61.0,-100.00,SSE,166,8.0,18.0,56,0.00,,,0.00,622.000000,,2013-03-11 16:43:00,
2013-03-11 12:53:00,78.0,61.0,-100.00,SSE,166,8.0,18.0,56,0.00,,,0.00,622.000000,,2013-03-11 16:53:00,
2013-03-11 13:03:00,78.0,61.0,-100.00,SSE,166,8.0,18.0,56,0.00,,,0.00,622.000000,,2013-03-11 17:03:00,
2013-03-11 13:42:00,77.0,61.0,-100.00,South,190,8.0,17.0,58,0.00,,,-99.99,673.000000,,2013-03-11 17:42:00,
2013-03-11 13:53:00,77.0,61.0,-100.00,South,190,8.0,17.0,58,0.00,,,-99.99,673.000000,,2013-03-11 17:53:00,
2013-03-11 14:02:00,77.0,61.0,-100.00,South,190,8.0,17.0,58,0.00,,,-99.99,673.000000,,2013-03-11 18:02:00,
2013-03-11 14:12:00,77.0,61.0,-100.00,South,190,8.0,17.0,58,0.00,,,-99.99,673.000000,,2013-03-11 18:12:00,
2013-03-11 14:33:00,77.0,61.0,-100.00,South,191,9.0,16.0,58,0.00,,,0.00,652.000000,,2013-03-11 18:33:00,
2013-03-11 14:43:00,77.0,61.0,-100.00,South,191,9.0,16.0,58,0.00,,,0.00,652.000000,,2013-03-11 18:43:00,
2013-03-11 14:53:00,77.0,61.0,-100.00,South,191,9.0,16.0,58,0.00,,,0.00,652.000000,,2013-03-11 18:53:00,
2013-03-11 15:02:00,77.0,61.0,-100.00,South,191,9.0,16.0,58,0.00,,,0.00,652.000000,,2013-03-11 19:02:00,
2013-03-11 15:13:00,77.0,61.0,-100.00,South,191,9.0,16.0,58,0.00,,,0.00,652.000000,,2013-03-11 19:13:00,
2013-03-11 15:43:00,78.0,62.0,-100.00,South,191,7.0,16.0,57,0.00,,,0.00,607.000000,,2013-03-11 19:43:00,
2013-03-11 15:53:00,78.0,62.0,-100.00,South,191,7.0,16.0,57,0.00,,,0.00,607.000000,,2013-03-11 19:53:00,
2013-03-11 16:02:00,78.0,62.0,-100.00,South,191,7.0,16.0,57,0.00,,,0.00,607.000000,,2013-03-11 20:02:00,
2013-03-11 16:12:00,78.0,62.0,-100.00,South,191,7.0,16.0,57,0.00,,,0.00,607.000000,,2013-03-11 20:12:00,
2013-03-11 16:44:00,76.0,61.0,-100.00,South,177,9.0,15.0,60,0.00,,,0.00,531.000000,,2013-03-11 20:44:00,
2013-03-11 16:53:00,76.0,61.0,-100.00,South,177,9.0,15.0,60,0.00,,,0.00,531.000000,,2013-03-11 20:53:00,
2013-03-11 17:03:00,76.0,61.0,-100.00,South,177,9.0,15.0,60,0.00,,,0.00,531.000000,,2013-03-11 21:03:00,
2013-03-11 17:13:00,76.0,61.0,-100.00,South,177,9.0,15.0,60,0.00,,,0.00,531.000000,,2013-03-11 21:13:00,
2013-03-11 17:33:00,75.0,62.0,-100.00,South,186,8.0,19.0,65,0.00,,,0.00,437.000000,,2013-03-11 21:33:00,
2013-03-11 17:44:00,75.0,62.0,-100.00,South,186,8.0,19.0,65,0.00,,,0.00,437.000000,,2013-03-11 21:44:00,
2013-03-11 17:54:00,75.0,62.0,-100.00,South,186,8.0,19.0,65,0.00,,,0.00,437.000000,,2013-03-11 21:54:00,
2013-03-11 18:03:00,75.0,62.0,-100.00,South,186,8.0,19.0,65,0.00,,,0.00,437.000000,,2013-03-11 22:03:00,
2013-03-11 18:13:00,75.0,62.0,-100.00,South,186,8.0,19.0,65,0.00,,,0.00,437.000000,,2013-03-11 22:13:00,
2013-03-11 18:33:00,75.0,63.0,-100.00,South,183,6.0,16.0,67,0.00,,,0.00,295.000000,,2013-03-11 22:33:00,
2013-03-11 18:43:00,75.0,63.0,-100.00,South,183,6.0,16.0,67,0.00,,,0.00,295.000000,,2013-03-11 22:43:00,
2013-03-11 18:53:00,75.0,63.0,-100.00,South,183,6.0,16.0,67,0.00,,,0.00,295.000000,,2013-03-11 22:53:00,
2013-03-11 19:03:00,75.0,63.0,-100.00,South,183,6.0,16.0,67,0.00,,,0.00,295.000000,,2013-03-11 23:03:00,
2013-03-11 19:12:00,75.0,63.0,-100.00,South,183,6.0,16.0,67,0.00,,,0.00,295.000000,,2013-03-11 23:12:00,
2013-03-11 19:33:00,69.0,63.0,-100.00,SSW,199,5.0,12.0,80,0.00,,,0.00,93.000000,,2013-03-11 23:33:00,
2013-03-11 19:43:00,69.0,63.0,-100.00,SSW,199,5.0,12.0,80,0.00,,,0.00,93.000000,,2013-03-11 23:43:00,
2013-03-11 19:54:00,69.0,63.0,-100.00,SSW,199,5.0,12.0,80,0.00,,,0.00,93.000000,,2013-03-11 23:54:00,
2013-03-11 20:02:00,69.0,63.0,-100.00,SSW,199,5.0,12.0,80,0.00,,,0.00,93.000000,,2013-03-12 00:02:00,
2013-03-11 20:13:00,69.0,63.0,-100.00,SSW,199,5.0,12.0,80,0.00,,,0.00,93.000000,,2013-03-12 00:13:00,
2013-03-11 20:43:00,68.0,63.0,-100.00,South,173,6.0,13.0,83,0.00,,,0.00,3.000000,,2013-03-12 00:43:00,
2013-03-11 20:54:00,68.0,63.0,-100.00,South,173,6.0,13.0,83,0.00,,,0.00,3.000000,,2013-03-12 00:54:00,
2013-03-11 21:02:00,68.0,63.0,-100.00,South,173,6.0,13.0,83,0.00,,,0.00,3.000000,,2013-03-12 01:02:00,
2013-03-11 21:12:00,68.0,63.0,-100.00,South,173,6.0,13.0,83,0.00,,,0.00,3.000000,,2013-03-12 01:12:00,
2013-03-11 21:42:00,68.0,63.0,-100.00,South,176,5.0,12.0,84,0.00,,,0.00,0.000000,,2013-03-12 01:42:00,
2013-03-11 21:53:00,68.0,63.0,-100.00,South,176,5.0,12.0,84,0.00,,,0.00,0.000000,,2013-03-12 01:53:00,
2013-03-11 22:02:00,68.0,63.0,-100.00,South,176,5.0,12.0,84,0.00,,,0.00,0.000000,,2013-03-12 02:02:00,
2013-03-11 22:13:00,68.0,63.0,-100.00,South,176,5.0,12.0,84,0.00,,,0.00,0.000000,,2013-03-12 02:13:00,
2013-03-11 22:43:00,67.0,63.0,-100.00,SSE,148,5.0,10.0,88,0.00,,,0.00,0.000000,,2013-03-12 02:43:00,
2013-03-11 22:52:00,67.0,63.0,-100.00,SSE,148,5.0,10.0,88,0.00,,,0.00,0.000000,,2013-03-12 02:52:00,
2013-03-11 23:02:00,67.0,63.0,-100.00,SSE,148,5.0,10.0,88,0.00,,,0.00,0.000000,,2013-03-12 03:02:00,
2013-03-11 23:12:00,67.0,63.0,-100.00,SSE,148,5.0,10.0,88,0.00,,,0.00,0.000000,,2013-03-12 03:12:00,
2013-03-11 23:43:00,67.0,64.0,-100.00,SSE,148,4.0,10.0,90,0.00,,,0.00,0.000000,,2013-03-12 03:43:00,
2013-03-11 23:53:00,67.0,64.0,-100.00,SSE,148,4.0,10.0,90,0.00,,,0.00,0.000000,,2013-03-12 03:53:00,